Back to catalog

DELTA 1 R/B

AliveHEO
NORAD 738·ROCKET BODY·🇺🇸 United States

Launched Jan 21, 1964 from Cape Canaveral Space Force Station

Loading…

Next Passes (next 24 hours)

TLE

FreshSource: Space-Track

Epoch: Sep 14, 2026, 08:42 UTC

1 00738U 64003B   26257.36279974 -.00000024  00000-0  00000-0 0  9997
2 00738  46.4500 253.4655 2602338 113.7262 275.6555  7.39333515692073

Track DELTA 1 R/B in real time with AllMySat

Download on the App Store